Lapse_Rate
7.3 7.1 7.0 7.0 7.0 6.9 6.8 6.6 6.3 6.3 6.4 6.4 6.2 6.2 6.2 6.2 6.2 6.2 6.3 6.3 6.4 6.5 6.5 6.6 6.6 6.7 6.7 6.7 6.7 6.6 6.6 6.5 6.4 6.2 6.1 6.0 6.0 6.0 6.0 6.0 5.9 5.7 5.7
7.2 7.2 7.2 7.1 7.0 6.8 6.7 6.6 6.4 6.3 6.3 6.4 6.3 6.3 6.3 6.3 6.2 6.3 6.3 6.4 6.5 6.6 6.6 6.7 6.8 6.8 6.9 6.8 6.8 6.7 6.7 6.5 6.4 6.4 6.3 6.3 6.2 6.2 6.1 6.0 5.9 5.8 5.9
7.1 7.2 7.1 7.1 7.0 6.8 6.7 6.6 6.5 6.3 6.4 6.4 6.4 6.3 6.3 6.3 6.3 6.3 6.3 6.5 6.5 6.6 6.7 6.9 6.9 7.0 7.0 7.0 6.9 6.8 6.8 6.7 6.6 6.5 6.4 6.4 6.4 6.3 6.3 6.1 6.0 6.1 6.1
6.9 7.0 7.1 7.1 6.9 6.8 6.6 6.6 6.5 6.3 6.4 6.4 6.4 6.4 6.3 6.4 6.4 6.4 6.4 6.5 6.6 6.7 6.8 6.9 7.0 7.0 7.0 6.9 6.8 6.7 6.7 6.6 6.6 6.5 6.4 6.4 6.4 6.4 6.3 6.2 6.2 6.2 6.3
6.9 6.9 6.9 7.0 6.9 6.7 6.5 6.4 6.3 6.1 6.2 6.3 6.4 6.5 6.4 6.4 6.4 6.5 6.5 6.5 6.6 6.7 6.8 6.9 7.0 7.0 7.0 6.9 6.8 6.7 6.6 6.6 6.6 6.6 6.5 6.5 6.3 6.3 6.3 6.3 6.2 6.3 6.2
6.8 6.7 6.7 6.9 6.8 6.7 6.5 6.3 6.1 6.0 6.2 6.3 6.3 6.5 6.5 6.4 6.5 6.5 6.6 6.6 6.7 6.8 6.9 7.0 7.0 7.0 7.0 6.9 6.8 6.8 6.7 6.7 6.7 6.7 6.6 6.6 6.4 6.3 6.3 6.2 6.3 6.3 6.3
6.7 6.8 6.7 6.8 6.8 6.6 6.5 6.3 6.1 5.9 6.2 6.2 6.3 6.4 6.5 6.5 6.5 6.6 6.6 6.6 6.7 6.8 6.9 7.0 7.0 7.0 7.0 7.0 6.8 6.7 6.7 6.7 6.7 6.7 6.7 6.7 6.5 6.4 6.3 6.3 6.3 6.2 6.2
6.6 6.7 6.8 6.6 6.7 6.5 6.5 6.4 6.0 5.8 6.1 6.2 6.2 6.4 6.5 6.5 6.5 6.6 6.6 6.6 6.7 6.8 6.9 6.9 7.0 7.0 7.0 6.9 6.7 6.7 6.6 6.6 6.7 6.7 6.7 6.6 6.5 6.4 6.3 6.4 6.4 6.4 6.4
6.4 6.6 6.9 6.6 6.6 6.4 6.4 6.3 6.1 5.9 6.0 6.2 6.1 6.4 6.5 6.4 6.4 6.5 6.5 6.6 6.7 6.8 6.9 7.0 7.1 7.0 7.1 6.9 6.8 6.7 6.7 6.6 6.8 6.7 6.6 6.5 6.4 6.4 6.4 6.4 6.5 6.6 6.6
6.3 6.6 6.9 6.6 6.4 6.4 6.3 6.2 5.9 5.9 6.1 6.1 6.1 6.2 6.4 6.4 6.4 6.5 6.5 6.5 6.7 6.8 6.8 6.9 7.0 7.0 7.1 6.9 6.9 6.7 6.7 6.6 6.6 6.6 6.6 6.6 6.5 6.5 6.6 6.6 6.5 6.5 6.4
6.2 6.7 6.9 6.5 6.0 5.9 6.2 6.2 5.9 5.9 6.1 6.2 6.1 6.0 6.2 6.4 6.4 6.5 6.6 6.5 6.7 6.7 6.8 6.9 6.9 7.0 7.0 6.9 6.8 6.9 6.8 6.7 6.7 6.6 6.7 6.6 6.7 6.6 6.6 6.4 6.4 6.4 6.5
6.4 6.8 7.0 6.5 6.2 5.9 6.1 6.1 6.1 6.2 6.2 6.3 6.1 6.0 6.2 6.3 6.4 6.5 6.5 6.5 6.6 6.7 6.7 6.8 6.9 6.9 6.9 6.8 6.8 6.8 6.8 6.8 6.7 6.7 6.7 6.7 6.6 6.6 6.5 6.4 6.4 6.4 6.4
6.5 6.6 6.7 6.4 6.3 6.1 6.5 6.1 6.1 6.4 6.2 6.3 6.2 6.1 6.1 6.3 6.4 6.4 6.4 6.5 6.6 6.7 6.7 6.7 6.7 6.9 6.9 6.8 6.7 6.8 6.8 6.8 6.7 6.7 6.7 6.7 6.7 6.6 6.6 6.5 6.4 6.3 6.2
6.6 6.4 6.2 6.2 6.4 5.9 6.3 5.8 6.2 6.2 6.3 6.2 6.2 6.2 6.2 6.2 6.3 6.4 6.3 6.4 6.5 6.6 6.6 6.7 6.7 6.7 6.7 6.7 6.7 6.7 6.7 6.8 6.8 6.7 6.6 6.7 6.6 6.6 6.6 6.4 6.4 6.3 6.3
6.6 6.2 6.2 6.0 6.2 5.9 6.2 5.5 6.0 6.1 6.1 6.1 6.0 6.0 6.0 6.1 6.2 6.3 6.2 6.2 6.4 6.5 6.5 6.5 6.6 6.6 6.6 6.7 6.6 6.7 6.6 6.5 6.6 6.5 6.5 6.5 6.5 6.5 6.4 6.3 6.3 6.3 6.2
5.8 5.6 6.5 6.2 6.2 5.8 5.9 5.3 5.9 6.0 5.9 6.0 5.9 5.9 5.9 6.0 6.1 6.2 6.2 6.1 6.2 6.3 6.4 6.4 6.5 6.6 6.6 6.6 6.6 6.6 6.6 6.5 6.6 6.6 6.5 6.4 6.4 6.4 6.3 6.3 6.2 6.2 6.1
5.7 5.7 5.0 6.0 6.1 5.9 5.7 5.3 5.6 5.8 5.8 5.8 5.9 5.9 5.8 5.9 6.0 6.0 6.1 6.1 6.1 6.1 6.1 6.3 6.4 6.4 6.5 6.5 6.5 6.6 6.5 6.4 6.5 6.5 6.5 6.4 6.3 6.3 6.2 6.1 6.0 5.9 5.9
5.8 5.7 4.7 5.5 6.1 5.9 5.5 5.5 5.6 5.7 5.9 5.7 5.8 5.8 5.9 5.8 6.0 5.9 6.0 6.0 6.0 6.0 6.0 6.1 6.3 6.3 6.3 6.3 6.3 6.4 6.5 6.4 6.4 6.4 6.4 6.3 6.2 6.0 5.9 5.9 5.8 5.7 5.6
6.0 5.9 5.9 5.2 5.6 5.7 5.3 5.9 5.7 5.6 5.7 5.7 5.6 5.7 5.7 5.7 5.9 6.0 5.8 6.0 5.9 5.9 5.9 6.0 6.1 6.2 6.2 6.1 6.2 6.2 6.2 6.2 6.3 6.2 6.1 6.0 5.9 5.8 5.7 5.6 5.3 5.3 5.3
6.2 6.2 4.9 4.6 4.8 5.4 5.3 5.8 5.7 5.6 5.6 5.7 5.4 5.5 5.6 5.7 5.8 5.9 5.9 5.9 5.9 5.8 5.9 5.8 6.0 6.1 6.1 6.1 6.0 6.0 6.0 6.1 6.1 6.0 5.9 5.7 5.7 5.5 5.4 5.4 5.2 5.1 5.1
6.7 6.5 5.9 4.9 5.1 4.6 5.0 5.1 5.3 5.6 5.5 5.5 5.6 5.6 5.5 5.6 5.6 5.8 5.9 5.8 5.8 5.9 5.7 5.7 5.8 6.0 6.1 5.9 5.8 5.8 5.9 5.9 5.8 5.7 5.7 5.6 5.4 5.3 5.2 5.1 5.2 5.2 5.1
6.8 6.3 6.2 5.6 4.9 5.3 4.5 4.4 5.1 5.0 5.5 5.7 5.6 5.6 5.7 5.6 5.7 5.7 5.8 5.7 5.8 5.9 5.8 5.7 5.7 5.9 5.9 5.8 5.8 5.8 5.7 5.8 5.7 5.5 5.5 5.5 5.4 5.3 5.1 4.9 4.8 4.8 4.9
7.1 6.9 6.5 6.0 5.2 5.0 5.3 4.4 5.2 4.9 5.6 5.7 5.6 5.3 5.6 5.6 5.7 5.7 5.7 5.6 5.7 5.8 5.8 5.6 5.7 5.7 5.7 5.6 5.6 5.7 5.6 5.7 5.4 5.4 5.4 5.3 5.2 5.2 5.2 5.0 4.8 4.7 4.8
7.0 7.0 6.8 6.5 6.2 4.8 5.1 5.0 4.8 4.3 4.3 5.1 5.8 5.7 5.8 5.8 5.7 5.6 5.6 5.6 5.5 5.7 5.8 5.6 5.7 5.7 5.6 5.5 5.5 5.5 5.5 5.4 5.3 5.2 5.2 5.1 5.0 5.0 5.0 5.0 5.0 4.7 4.7
6.8 6.9 6.7 6.1 6.1 6.3 5.8 5.2 5.6 5.8 4.4 5.6 5.5 5.8 5.7 5.9 5.8 5.8 5.7 5.8 5.6 5.7 5.7 5.6 5.6 5.5 5.5 5.5 5.5 5.3 5.3 5.1 5.1 5.0 5.0 5.0 4.8 5.0 5.0 4.9 4.9 4.7 4.8
6.8 6.8 6.6 6.4 5.9 6.2 6.5 5.4 5.6 6.2 5.6 5.6 6.5 6.3 5.8 6.2 6.0 5.8 5.7 5.7 5.7 5.5 5.6 5.5 5.4 5.3 5.3 5.3 5.2 5.2 5.1 5.0 4.8 4.6 4.7 5.0 4.8 5.1 4.9 4.7 4.8 4.6 4.7
Wind_Speed
11 20 24 23 22 22 21 19 18 19 19 19 19 16 14 13 13 13 13 13 13 13 12 12 11 11 11 12 13 14 14 14 13 13 14 13 12 12 10 8 6 14 12
13 23 24 24 23 21 22 20 18 19 19 17 15 14 14 14 13 13 13 13 13 13 12 12 12 13 13 14 14 14 13 12 10 10 18 19 16 14 14 14 16 10 11
14 23 25 24 23 21 23 21 19 19 19 18 16 15 15 14 14 13 13 13 13 13 13 13 14 14 15 15 14 13 13 11 7 6 3 17 18 19 18 18 13 14 15
15 22 25 24 24 22 22 23 21 20 20 18 17 16 15 15 14 13 13 14 14 14 14 15 15 16 15 15 15 16 14 9 3 3 7 17 14 15 15 18 19 18 19
15 21 24 24 24 23 22 21 21 22 21 19 17 16 15 14 14 13 13 14 14 15 15 16 16 17 16 17 17 15 11 5 1 12 16 12 14 13 14 15 16 17 18
14 20 24 24 23 25 23 21 23 22 21 19 17 16 15 14 14 14 14 14 14 15 16 16 17 17 18 18 17 14 7 2 4 15 14 12 15 16 16 16 15 16 15
13 16 25 24 22 26 24 22 23 21 21 19 18 17 15 15 14 14 14 15 15 15 16 16 17 17 17 17 16 12 7 8 16 14 19 14 15 17 20 21 20 20 20
14 14 21 23 23 24 24 24 23 21 21 19 18 17 16 15 15 15 15 15 16 16 16 17 17 16 16 16 15 10 6 7 13 14 20 13 18 17 18 18 18 17 18
11 15 15 25 24 23 24 23 23 21 20 18 18 17 16 16 15 15 15 16 16 17 17 16 17 16 16 16 13 9 5 10 13 14 14 14 17 16 16 17 16 16 16
9 14 16 21 24 24 23 22 22 20 20 18 17 17 16 15 14 15 14 14 17 17 16 16 18 16 16 15 13 11 8 9 15 16 15 14 15 15 15 15 15 15 14
9 16 16 16 18 22 22 20 20 18 19 18 18 18 18 16 16 16 15 13 15 15 15 16 18 16 16 13 11 10 7 11 12 15 14 12 13 13 13 13 15 15 14
11 18 16 16 17 16 16 21 20 20 18 19 18 19 17 16 15 14 15 14 14 14 14 18 18 18 17 15 11 8 9 11 13 15 13 12 12 13 13 13 13 11 12
14 15 15 16 16 15 13 14 13 14 14 15 19 19 15 15 12 14 14 15 15 15 15 17 15 14 14 14 13 8 10 11 14 15 12 13 12 11 13 12 12 11 11
14 16 14 16 14 17 11 10 12 10 13 10 15 20 13 9 12 12 11 13 14 14 15 14 12 10 10 11 9 10 9 10 13 15 16 17 12 12 12 12 12 12 11
16 14 15 15 16 16 14 11 11 12 7 13 14 17 15 9 9 11 11 12 12 11 13 11 10 11 11 11 11 11 10 11 14 13 13 17 15 11 11 11 12 11 12
16 17 13 14 17 17 13 15 11 9 13 12 13 14 17 13 8 7 7 7 10 11 12 12 10 8 7 11 9 12 11 11 12 14 14 12 13 12 11 11 11 10 11
14 13 17 15 17 17 16 14 11 9 13 8 11 18 17 15 12 9 7 7 9 11 13 11 11 10 6 8 8 9 11 11 11 13 13 12 12 15 13 11 12 12 12
9 17 15 9 13 17 16 13 10 10 9 9 12 13 17 16 16 10 7 7 12 9 8 6 6 6 6 6 7 6 6 8 10 11 10 9 7 11 13 13 14 14 13
8 12 12 1 8 10 15 13 12 13 10 9 13 12 14 15 16 10 6 8 13 8 6 7 7 7 7 6 7 6 5 5 8 9 10 10 8 8 11 12 16 16 15
7 9 12 9 9 13 9 9 8 8 9 9 8 10 15 13 15 10 7 9 11 7 6 5 8 7 7 6 8 7 5 4 6 6 8 9 9 8 7 6 7 11 14
14 14 14 13 17 10 7 7 6 7 8 8 7 13 15 15 15 11 6 7 7 7 8 8 7 9 8 7 7 6 5 5 6 5 7 8 7 7 6 6 6 6 7
12 15 16 17 17 15 6 3 5 4 4 5 6 7 13 14 13 11 9 8 9 7 9 9 9 7 8 9 7 6 5 4 4 5 4 4 5 5 6 6 6 7 7
11 14 16 17 20 19 20 7 3 4 1 4 6 7 9 14 14 12 11 8 8 7 7 8 9 9 8 8 6 1 3 3 7 4 5 3 4 3 6 6 6 6 7
15 13 14 17 17 15 17 14 10 9 6 7 8 8 8 13 12 12 12 10 8 6 8 8 7 7 7 6 1 1 2 4 3 4 5 5 3 4 3 4 5 5 6
15 15 14 15 14 16 16 20 18 15 11 7 10 12 11 10 12 12 11 9 8 5 7 7 8 6 6 6 4 3 2 0 2 2 6 7 4 3 2 3 4 4 4
10 13 13 15 15 17 18 17 16 19 15 13 13 12 11 10 10 12 11 8 8 7 8 7 7 7 5 5 4 4 4 2 4 1 4 8 5 5 3 4 3 3 4
Wind_Direction
160 154 169 169 166 162 162 162 153 150 147 146 145 140 139 138 131 129 123 117 116 112 110 107 104 106 103 103 106 105 93 89 89 90 82 72 72 69 67 35 359 69 60
152 159 170 170 169 169 165 157 157 152 149 142 138 144 145 141 138 135 128 123 118 115 114 110 111 107 106 100 101 99 95 92 99 115 104 79 68 69 67 56 56 77 71
162 161 173 170 171 169 164 162 159 153 140 142 151 152 150 146 143 138 131 127 125 121 117 114 111 110 107 103 101 100 100 104 128 134 203 92 71 62 67 66 72 77 76
169 163 178 171 174 170 164 163 156 148 142 154 155 154 152 149 142 138 134 130 125 120 117 116 113 112 108 104 105 102 104 112 152 208 107 100 82 62 61 62 63 65 70
174 167 178 171 176 168 162 162 159 151 146 159 156 155 152 148 142 137 133 128 125 122 122 120 118 113 109 110 102 102 107 120 114 71 57 53 88 67 64 54 61 60 59
182 171 156 172 181 166 163 161 156 153 152 159 156 154 152 148 143 138 134 130 128 127 126 122 120 115 111 108 104 102 85 4 107 93 96 70 83 81 83 73 72 67 63
190 179 159 172 183 166 163 161 155 152 159 159 156 154 153 147 144 139 137 135 133 132 128 125 123 118 113 108 104 95 62 43 92 92 77 52 88 87 80 71 65 62 60
200 186 165 177 179 168 163 158 152 154 160 159 156 156 152 149 145 142 142 139 137 135 129 128 126 121 115 112 108 101 77 17 94 93 84 70 81 77 69 63 57 56 54
220 189 170 184 179 164 159 154 149 161 158 157 156 155 150 148 148 146 143 142 142 137 131 130 129 123 120 114 108 102 64 64 101 97 100 76 75 75 70 66 62 61 59
245 191 174 187 181 169 161 153 148 156 153 154 153 143 137 141 149 146 142 145 144 136 134 136 131 124 121 115 114 119 124 112 99 91 75 79 77 78 74 74 70 70 61
258 199 180 188 182 172 169 152 142 149 148 145 136 136 144 155 159 152 137 144 138 136 138 141 133 124 117 116 133 160 190 101 96 97 91 87 87 84 80 74 73 67 60
234 210 187 188 187 167 160 155 158 162 164 165 164 161 175 157 151 143 127 136 138 137 139 135 132 140 144 137 154 197 131 110 96 93 93 91 91 83 79 74 74 70 66
218 211 187 188 179 163 152 160 166 164 173 172 171 176 171 155 144 142 141 142 143 145 145 139 151 172 149 145 175 124 113 113 102 83 79 90 90 86 79 75 71 61 54
216 219 195 184 173 162 154 172 170 172 177 167 169 180 164 149 167 153 159 156 156 172 155 153 179 149 146 153 140 130 129 118 109 106 64 61 76 84 80 72 63 56 61
224 235 191 180 183 160 158 188 171 177 175 174 171 175 172 165 169 162 160 162 163 159 161 170 161 154 157 141 136 132 126 121 115 107 92 68 62 68 77 68 61 51 57
220 215 201 185 178 169 166 181 170 174 178 172 173 178 177 169 167 166 162 163 158 164 162 162 159 160 146 147 137 131 121 118 117 121 122 85 64 63 68 63 56 54 57
216 207 221 186 177 177 162 183 170 172 169 168 172 179 179 168 165 161 163 155 159 165 160 158 155 147 150 136 138 133 127 124 120 123 130 120 97 66 61 61 62 60 53
210 197 182 192 191 183 165 176 171 170 164 167 172 169 181 172 167 164 153 165 156 152 150 148 142 146 148 150 142 132 118 126 126 117 118 110 107 105 68 63 63 60 53
209 181 151 316 182 209 168 169 166 165 167 164 169 170 176 175 168 163 164 152 155 153 158 158 162 156 155 148 136 129 125 124 118 120 109 101 88 87 104 84 73 60 56
208 158 111 104 33 48 5 139 158 165 162 156 167 169 173 171 169 163 158 155 163 152 149 160 157 154 146 138 139 128 117 117 119 125 122 108 101 93 80 84 105 81 63
124 120 119 111 97 53 62 337 158 176 161 158 164 165 173 171 172 158 153 156 157 164 155 164 155 155 144 141 128 123 118 132 127 129 133 121 110 101 98 85 61 45 89
153 143 139 127 121 115 105 61 313 179 163 156 153 166 166 169 168 164 159 164 166 160 161 162 160 154 148 153 153 137 146 146 151 153 136 135 134 121 105 78 73 63 57
154 157 154 151 153 151 145 141 1 329 215 177 173 177 176 174 170 168 164 167 169 159 161 164 164 163 161 180 196 238 153 177 148 159 163 162 147 109 122 108 81 61 48
169 165 157 167 161 162 149 147 155 219 215 184 193 179 174 174 173 171 170 167 164 166 158 166 166 164 161 168 206 47 302 95 200 163 188 172 170 130 125 126 109 83 50
177 175 177 174 167 160 164 172 180 190 220 195 180 176 170 171 171 168 167 163 160 170 154 160 163 162 166 157 176 153 120 112 310 158 160 179 170 124 117 67 103 79 75
174 166 176 177 178 175 182 190 191 197 193 193 175 173 174 172 167 163 163 158 157 161 153 154 158 157 155 140 135 171 161 195 168 205 131 153 181 149 133 140 164 101 88